ATLAS 5 CENTAUR DEB, 44006

Orbit data source: Space-Track

ATLAS 5 CENTAUR DEB, 44006 is space debris in HEO originally from a launch on Wed, 17 Sep 2014 UTC launched from the Air Force Eastern Test Range (AFETR). Debris objects in space refer to the collection of defunct objects orbiting the Earth. Examples of debris include non-operational satellites, rocket bodies, and fragments generated from explosions, collisions, or faulty payload assembly.

Loading next visibility...
Identifier
44006, 2014-055BM
Orbit
HEO
Country
Flag of USUS
Related business
Flag of USUnited Launch Alliance/Lockheed Martin (US)
Manufacturer
Unknown
Mission
Spacecraft
Bus & Motor
Unknown
Mass
Unknown
Launch date (UTC)
2014-09-17 (11 years ago)
Launch vehicle
Unknown
Launch site
Air Force Eastern Test Range (AFETR)
Object type
Payload
Rocket body
Debris
Shape & HBR
Unknown shape, 1.1 m
Radar Cross Section
Small (<0.1 m²)

Expand to show TLE details & history
Last TLE update: 3 months ago

TLE from 3 months ago
0 ATLAS 5 CENTAUR DEB
1 44006U 14055BM  25262.09137187 -.00000059  00000-0  00000-0 0  9997
2 44006  20.1041 154.7564 4929035 148.3041 254.1078  1.88602997 48132
Epoch: 2025-09-19T02:11Z
TLE epoch observation values (Epoch: 2025-09-19T02:11:34.529Z)
Latitude
Longitude
123.60715°
Altitude
29,731.403 km
Speed
2.77 km/s
True Right ascension
10h 18m 58s
True Declination
0° 00' 00"
Sunlit
Object was in daylight at epoch
Visualization orbit readout
Latitude
Unknown
Longitude
Unknown
Altitude
Unknown
Speed
Unknown
Apparent Right ascension
Unknown
Apparent Declination
Unknown
Sunlit
N/A
Visualization observer readout
Local Sidereal Time
12:29:14
Azimuth
Unknown
Elevation
Unknown
Doppler factor
Unknown
Orbital elements
Apogee altitude
34,936.06 km
Perigee altitude
7,655.111 km
Semi-major axis
27,673.723 km
Eccentricity
0.4929
Inclination
20.1041°
RAAN
154.7564°
Arg. of periapsis
148.3041°
True anomaly
211.66129°
Mean anomaly
254.1078°
Eccentric anomaly
231.88753°
Mean motion
0.47146 °/min
Orbital period
763.59 mins
BSTAR
0
Loading maneuver chart data...
Computing Atmospheric mass density...

Documentation

Showing up to 5 results
|